Meteo Giornale » Osservazioni meteo Sud Africa » Vereeniging

ore: 01:00 - Osservazioni Meteo Vereeniging
Lat. 26° 34' S Lon. 27° 57' E Alt. 1483 metri s.l.m.

sereno

12 °C

Sereno

Temp. 24 Ore

10 °C

26 °C

Ovest/Nord-Ovest

9.3 Km/h

Dew point 6 °C

Umidità 66 %

Visibilità  0 Km

Il sole sorge alle ore 06:20

Il sole tramonta alle ore 17:55

Data e Ora Cielo e Fenomeni T °C DP °C Um. % Pres. hPa Vis. km Vento km/h
Oggi h: 01:00 sereno Sereno 12 6 66 1030 0 O/NO 9.3
Oggi h: 00:00 sereno Sereno 14 5 54 1030 0 O/NO 7.4
Ieri h: 23:00 sereno Sereno 13 6 62 1031 0 N 5.5
Ieri h: 22:00 sereno Sereno 15 5 51 1030 0 N 5.5
Ieri h: 21:00 sereno Sereno 17 5 45 1030 0 N 5.5
Ieri h: 20:00 sereno Sereno 17 4 41 1029 0 N 1.8
Ieri h: 19:00 sereno Sereno 20 3 32 1029 0 N 5.5
Ieri h: 18:00 sereno Sereno 22 3 28 1028 0 E/SE 9.3
Ieri h: 17:00 sereno Sereno 24 3 25 1028 0 E 16.7
Ieri h: 16:00 sereno Sereno 26 1 19 1027 0 SE 9.3
Ieri h: 15:00 sereno Sereno 26 1 19 1027 0 N 5.5
Ieri h: 14:00 sereno Sereno 26 1 19 1028 0 S 9.3
Ieri h: 13:00 sereno Sereno 25 1 20 1028 0 O 9.3
Ieri h: 12:00 sereno Sereno 24 2 23 1029 0 O/SO 9.3
Ieri h: 11:00 sereno Sereno 24 1 22 1029 0 O 11.1
Ieri h: 10:00 sereno Sereno 22 2 26 1029 0 O/NO 7.4
Ieri h: 09:00 sereno Sereno 20 2 30 1029 0 N 11.1
Ieri h: 08:00 sereno Sereno 15 3 44 1029 0 N 7.4
Ieri h: 07:00 sereno Sereno 10 2 57 1027 0 N/NO 7.4
Ieri h: 06:00 sereno Sereno 11 2 53 1027 0 N 3.7
Ieri h: 05:00 sereno Sereno 11 2 53 1027 0 NO 9.3
Ieri h: 04:00 sereno Sereno 10 3 61 1026 0 O 7.4
Ieri h: 03:00 sereno Sereno 10 4 66 1026 0 N 3.7
Ieri h: 02:00 sereno Sereno 11 2 53 1027 0 O/NO 7.4